Hourly Data Report for September 07, 2017

All times are specified in Local Standard Time (LST). Add 1 hour to adjust for Daylight Saving Time where and when it is observed.

CLYDE RIVER A
NUNAVUT

70°29'09.000" N
68°31'01.000" W
26.50 m
2400804
71090
YCY

Download Data

Hourly Data (September 2017)
Hourly Data Report for September 7, 2017
Temp Definition
°C
Dew Point Temp Definition
°C
Rel Hum Definition
%
Wind Dir Definition
10's deg

Wind Spd Definition
km/h
Visibility Definition
km
Stn Press Definition
kPa
Hmdx Definition


Wind Chill Definition


Weather Definition


TIME
00:00 Legend Double Dagger 0.6 -1.7 85 28 13 16.1 100.99     LegendNANA
01:00 Legend Double Dagger 0.8 -1.8 83 23 9 16.1 101.04     LegendNANA
02:00 Legend Double Dagger 0.3 -1.6 87 26 9 16.1 101.06     LegendNANA
03:00 Legend Double Dagger 0.4 -1.7 86 27 9 16.1 101.09     LegendNANA
04:00 Legend Double Dagger 0.5 -1.6 86 30 13 16.1 101.10     LegendNANA
05:00 Legend Double Dagger 0.4 -1.5 87 30 11 16.1 101.12     LegendNANA
06:00 Legend Double Dagger 0.9 -1.6 84 23 5 16.1 101.15     LegendNANA
07:00 Legend Double Dagger 1.5 -1.6 80 26 4 16.1 101.16     LegendNANA
08:00 Legend Double Dagger 2.2 -1.9 75   0 16.1 101.18     LegendNANA
09:00 Legend Double Dagger 2.4 -1.5 76 LegendMM 4 16.1 101.17     LegendNANA
10:00 Legend Double Dagger 2.7 -1.3 75 15 8 16.1 101.14     LegendNANA
11:00 Legend Double Dagger 3.8 -0.8 72 15 17 16.1 101.12     LegendNANA
12:00 Legend Double Dagger 3.4 -0.8 74 15 15 16.1 101.10     LegendNANA
13:00 Legend Double Dagger 3.1 0.6 83 14 17 16.1 101.09     LegendNANA
14:00 Legend Double Dagger 3.8 1.4 84 12 28 16.1 101.05     LegendNANA
15:00 Legend Double Dagger 3.4 1.3 86 13 26 16.1 100.99     LegendNANA
16:00 Legend Double Dagger 4.5 1.5 81 14 21 16.1 100.93     LegendNANA
17:00 Legend Double Dagger 4.6 -1.2 66 17 21 16.1 100.90     LegendNANA
18:00 Legend Double Dagger 3.4 -1.5 71 18 18 16.1 100.87     LegendNANA
19:00 Legend Double Dagger 2.9 -2.2 69 21 15 16.1 100.83     LegendNANA
20:00 Legend Double Dagger 1.7 -2.4 74 16 9 16.1 100.79     LegendNANA
21:00 Legend Double Dagger 3.5 -3.4 61 21 21 16.1 100.73     LegendNANA
22:00 Legend Double Dagger 2.7 -3.0 66 20 18 16.1 100.66     LegendNANA
23:00 Legend Double Dagger 2.6 -3.3 65 21 18 16.1 100.62     LegendNANA

Notes on Data Quality.

Legend

  • E = Estimated
  • M = Missing
  • NA = Not Available
  • ‡ = Partner data that is not subject to review by the National Climate Archives
Date modified: